• In Hungary
  • List of Countries
  • For 7 days
  • Water Temperature
  • Satellite Maps
  • Weather Map
  • News
  • Weather Widgets
  • user-avatar
    Login

    Hourly Weather Maloe Yakshino

    Today, 15 August, Wednesday

    Time Temperature Precipitation Wind Pressure Humidity
    00:00 +15°C° 0 mm 2 mps 738 mmHg 85%
    01:00 +15°C° 0 mm 2 mps 738 mmHg 88%
    02:00 +15°C° 0 mm 2 mps 737 mmHg 92%
    03:00 +15°C° 0.7 mm 2 mps 737 mmHg 93%
    04:00 +16°C° 0.7 mm 2 mps 737 mmHg 95%
    05:00 +16°C° 0.7 mm 2 mps 736 mmHg 96%
    06:00 +17°C° 1.1 mm 3 mps 736 mmHg 96%
    07:00 +18°C° 1.1 mm 3 mps 736 mmHg 96%
    08:00 +18°C° 0 mm 3 mps 735 mmHg 95%
    09:00 +19°C° 0.6 mm 3 mps 735 mmHg 93%
    10:00 +20°C° 0.6 mm 3 mps 735 mmHg 91%
    11:00 +21°C° 0.6 mm 3 mps 735 mmHg 89%
    12:00 +21°C° 0.6 mm 3 mps 735 mmHg 88%
    13:00 +22°C° 0.6 mm 3 mps 735 mmHg 88%
    14:00 +22°C° 0.6 mm 3 mps 735 mmHg 87%
    15:00 +21°C° 0.4 mm 3 mps 735 mmHg 87%
    16:00 +21°C° 0.4 mm 3 mps 735 mmHg 88%
    17:00 +21°C° 0.4 mm 3 mps 736 mmHg 89%
    18:00 +20°C° 0.1 mm 3 mps 736 mmHg 91%
    19:00 +18°C° 0.1 mm 2 mps 736 mmHg 94%
    20:00 +17°C° 0.1 mm 2 mps 736 mmHg 97%
    21:00 +17°C° 0 mm 2 mps 736 mmHg 97%
    22:00 +16°C° 0 mm 2 mps 737 mmHg 97%
    23:00 +15°C° 0 mm 2 mps 737 mmHg 98%

    Tomorrow, 16 August, Thursday

    Time Temperature Precipitation Wind Pressure Humidity
    00:00 +15°C° 0 mm 1 mps 737 mmHg 98%
    01:00 +15°C° 0 mm 1 mps 737 mmHg 98%
    02:00 +15°C° 0 mm 1 mps 738 mmHg 98%
    03:00 +15°C° 0 mm 1 mps 738 mmHg 98%
    04:00 +15°C° 0 mm 1 mps 738 mmHg 98%
    05:00 +14°C° 0 mm 1 mps 738 mmHg 98%
    06:00 +16°C° 0 mm 1 mps 739 mmHg 96%
    07:00 +18°C° 0 mm 1 mps 739 mmHg 94%
    08:00 +19°C° 0 mm 1 mps 740 mmHg 91%
    09:00 +19°C° 0.2 mm 1 mps 740 mmHg 89%
    10:00 +20°C° 0.2 mm 1 mps 741 mmHg 87%
    11:00 +19°C° 0.2 mm 2 mps 741 mmHg 85%
    12:00 +20°C° 0.4 mm 2 mps 741 mmHg 82%
    13:00 +21°C° 0.4 mm 2 mps 741 mmHg 78%
    14:00 +21°C° 0.4 mm 2 mps 741 mmHg 75%
    15:00 +21°C° 0.3 mm 2 mps 741 mmHg 75%
    16:00 +21°C° 0.3 mm 2 mps 742 mmHg 75%
    17:00 +21°C° 0.3 mm 2 mps 742 mmHg 75%
    18:00 +19°C° 0 mm 2 mps 742 mmHg 80%
    19:00 +17°C° 0 mm 2 mps 743 mmHg 84%
    20:00 +16°C° 0 mm 1 mps 743 mmHg 89%
    21:00 +15°C° 0 mm 1 mps 743 mmHg 90%
    22:00 +14°C° 0 mm 1 mps 743 mmHg 91%
    23:00 +13°C° 0 mm 1 mps 744 mmHg 92%

    Day after tomorrow, 17 August, Friday

    Time Temperature Precipitation Wind Pressure Humidity
    00:00 +13°C° 0 mm 1 mps 744 mmHg 93%
    01:00 +13°C° 0 mm 1 mps 744 mmHg 94%
    02:00 +12°C° 0 mm 1 mps 744 mmHg 94%
    03:00 +12°C° 0 mm 1 mps 745 mmHg 95%
    04:00 +12°C° 0 mm 1 mps 745 mmHg 95%
    05:00 +12°C° 0 mm 1 mps 745 mmHg 95%
    06:00 +14°C° 0 mm 2 mps 745 mmHg 88%
    07:00 +16°C° 0 mm 2 mps 746 mmHg 81%
    08:00 +18°C° 0 mm 2 mps 746 mmHg 74%
    09:00 +19°C° 0 mm 2 mps 746 mmHg 67%
    10:00 +21°C° 0 mm 2 mps 746 mmHg 59%
    11:00 +23°C° 0 mm 2 mps 746 mmHg 52%
    12:00 +24°C° 0 mm 2 mps 746 mmHg 50%
    13:00 +24°C° 0 mm 2 mps 746 mmHg 49%
    14:00 +25°C° 0 mm 2 mps 746 mmHg 47%
    15:00 +24°C° 0 mm 2 mps 745 mmHg 51%
    16:00 +24°C° 0 mm 2 mps 745 mmHg 55%
    17:00 +23°C° 0 mm 2 mps 745 mmHg 58%
    18:00 +20°C° 0 mm 2 mps 745 mmHg 66%
    19:00 +18°C° 0 mm 2 mps 745 mmHg 73%
    20:00 +16°C° 0 mm 2 mps 745 mmHg 80%
    21:00 +15°C° 0 mm 2 mps 745 mmHg 81%
    22:00 +14°C° 0 mm 2 mps 745 mmHg 83%
    23:00 +13°C° 0 mm 2 mps 745 mmHg 84%

    18 August, Saturday

    Time Temperature Precipitation Wind Pressure Humidity
    00:00 +13°C° 0 mm 2 mps 746 mmHg 85%
    01:00 +13°C° 0 mm 2 mps 746 mmHg 86%
    02:00 +12°C° 0 mm 2 mps 746 mmHg 86%
    03:00 +12°C° 0 mm 2 mps 746 mmHg 87%
    04:00 +12°C° 0 mm 1 mps 746 mmHg 89%
    05:00 +12°C° 0 mm 1 mps 746 mmHg 90%
    06:00 +14°C° 0 mm 2 mps 746 mmHg 82%
    07:00 +16°C° 0 mm 2 mps 746 mmHg 75%
    08:00 +19°C° 0 mm 2 mps 746 mmHg 68%
    09:00 +20°C° 0 mm 2 mps 746 mmHg 61%
    10:00 +22°C° 0 mm 3 mps 746 mmHg 55%
    11:00 +25°C° 0 mm 3 mps 746 mmHg 49%
    12:00 +25°C° 0 mm 3 mps 746 mmHg 48%
    13:00 +26°C° 0 mm 3 mps 745 mmHg 47%
    14:00 +26°C° 0 mm 3 mps 745 mmHg 47%
    15:00 +25°C° 0 mm 3 mps 745 mmHg 51%
    16:00 +25°C° 0 mm 2 mps 744 mmHg 55%
    17:00 +25°C° 0 mm 2 mps 744 mmHg 60%
    18:00 +21°C° 0 mm 2 mps 744 mmHg 67%
    19:00 +19°C° 0 mm 2 mps 744 mmHg 75%
    20:00 +17°C° 0 mm 2 mps 744 mmHg 83%
    21:00 +17°C° 0 mm 2 mps 744 mmHg 85%
    22:00 +16°C° 0 mm 2 mps 744 mmHg 86%
    23:00 +15°C° 0 mm 2 mps 744 mmHg 88%

    19 August, Sunday

    Time Temperature Precipitation Wind Pressure Humidity
    00:00 +15°C° 0 mm 2 mps 744 mmHg 89%
    01:00 +15°C° 0 mm 2 mps 743 mmHg 90%
    02:00 +14°C° 0 mm 2 mps 743 mmHg 91%
    03:00 +14°C° 0 mm 2 mps 743 mmHg 91%
    04:00 +14°C° 0 mm 2 mps 743 mmHg 92%
    05:00 +13°C° 0 mm 3 mps 743 mmHg 92%
    06:00 +16°C° 0 mm 3 mps 742 mmHg 86%
    07:00 +18°C° 0 mm 3 mps 742 mmHg 80%
    08:00 +19°C° 0 mm 4 mps 742 mmHg 74%
    09:00 +21°C° 0.1 mm 4 mps 742 mmHg 71%
    10:00 +22°C° 0.1 mm 4 mps 741 mmHg 68%
    11:00 +25°C° 0.1 mm 5 mps 741 mmHg 64%
    12:00 +23°C° 0.5 mm 4 mps 741 mmHg 70%
    13:00 +23°C° 0.5 mm 4 mps 740 mmHg 76%
    14:00 +23°C° 0.5 mm 4 mps 740 mmHg 82%
    15:00 +22°C° 1.2 mm 4 mps 739 mmHg 84%
    16:00 +22°C° 1.2 mm 3 mps 739 mmHg 87%
    17:00 +21°C° 1.2 mm 3 mps 739 mmHg 90%
    18:00 +20°C° 0.6 mm 3 mps 739 mmHg 92%
    19:00 +19°C° 0.6 mm 2 mps 739 mmHg 94%
    20:00 +18°C° 0.6 mm 2 mps 740 mmHg 96%
    21:00 +17°C° 0 mm 2 mps 740 mmHg 97%
    22:00 +16°C° 0 mm 2 mps 740 mmHg 97%
    23:00 +15°C° 0 mm 2 mps 740 mmHg 97%

    20 August, Monday

    Time Temperature Precipitation Wind Pressure Humidity
    00:00 +15°C° 0 mm 2 mps 740 mmHg 97%
    01:00 +14°C° 0 mm 2 mps 740 mmHg 98%
    02:00 +14°C° 0 mm 1 mps 740 mmHg 98%
    03:00 +13°C° 0 mm 1 mps 740 mmHg 98%
    04:00 +13°C° 0 mm 1 mps 741 mmHg 98%
    05:00 +12°C° 0 mm 1 mps 741 mmHg 98%
    06:00 +14°C° 0 mm 2 mps 741 mmHg 95%
    07:00 +15°C° 0 mm 2 mps 741 mmHg 93%
    08:00 +16°C° 0 mm 2 mps 742 mmHg 90%
    09:00 +17°C° 0 mm 2 mps 742 mmHg 80%
    10:00 +19°C° 0 mm 2 mps 742 mmHg 70%
    11:00 +20°C° 0 mm 2 mps 742 mmHg 59%
    12:00 +21°C° 0 mm 2 mps 742 mmHg 56%
    13:00 +21°C° 0 mm 2 mps 742 mmHg 52%
    14:00 +23°C° 0 mm 2 mps 742 mmHg 48%
    15:00 +21°C° 0 mm 2 mps 742 mmHg 52%
    16:00 +21°C° 0 mm 2 mps 742 mmHg 55%
    17:00 +21°C° 0 mm 1 mps 742 mmHg 59%
    18:00 +19°C° 0 mm 1 mps 742 mmHg 64%
    19:00 +18°C° 0 mm 1 mps 742 mmHg 69%
    20:00 +15°C° 0 mm 1 mps 742 mmHg 74%
    21:00 +15°C° 0 mm 1 mps 742 mmHg 75%
    22:00 +14°C° 0 mm 1 mps 741 mmHg 76%
    23:00 +14°C° 0 mm 1 mps 741 mmHg 77%
    Show more